Content
SEND FEEDBACK

Daily
Averages
Monthly
Summary
United States of America

BLACK HAWK, SOUTH DAKOTA


Home > North America > United States > South Dakota
Elevation: 3352 feet     Latitude: 44 05N     Longitude: 103 16W

WEATHER
 
SELECT A DAY
Number of Records: 204,315;   Date Range: 1/1/95 - 9/18/14
 
SHARE

PRINT THIS DATA

[ ← Previous Day ]
WEATHER ALMANAC - JULY 18, 2013
[ Next Day → ]
[ °C ]   °F
Weather ElementAverageHighLow
Temperature82.8 °F93 °F (6:58 pm)70.2 °F (5:58 am)
Dewpoint57.9 °F63.5 °F (11:58 am)51.4 °F (7:58 pm)
Humidity44.1 %64 % (4:58 am)25 % (6:58 pm)
Barometer29.93 in30.06 in (10:58 pm)29.88 in (6:58 pm)
Wind Speed12.5 mph24.2 mph (11:58 am)
Wind Gust32.2 mph (11:58 am)
Weather ElementAverage
Visibility10 mi
Wind DirectionWNW (284.8 °)

Weather ElementTotal
Precipitation---
Cooling Degree Days16.6 (Base 65)
Growing Degree Days31.6 (Base 50)
Averaged from 25 records on July 18, 2013
WEATHER CONDITIONS BREAKOUT
WIND DIRECTION BREAKOUT
WEATHER BY HOUR - JULY 18, 2013
[ °C ]   °F
Local TimeTemperatureDewpointHumidityBarometerVisibilityWind DirectionWind SpeedGust SpeedPrecipitationEventsConditions
1:58 AM73.0 °F58.8 °F61 %29.94 in10.0 miSouth (170°)10.4 mphClear
2:58 AM72.5 °F58.3 °F61 %29.91 in10.0 miSouth (180°)10.4 mphClear
3:58 AM72.3 °F57.7 °F60 %29.90 in10.0 miSouth (180°)10.4 mphClear
4:58 AM70.3 °F57.6 °F64 %29.89 in10.0 miSSW (200°)5.8 mphClear
5:58 AM70.2 °F57.6 °F64 %29.91 in10.0 miSSW (210°)1.2 mphClear
6:58 AM72.5 °F58.1 °F60 %29.90 in10.0 miNNW (330°)1.2 mphClear
7:58 AM79.2 °F58.1 °F48 %29.92 in10.0 miNorth (360°)12.7 mphClear
8:58 AM83.5 °F57.9 °F42 %29.92 in10.0 miNorth (360°)15.0 mphClear
9:58 AM87.6 °F55.0 °F33 %29.91 in10.0 miNNW (330°)17.3 mphMostly Cloudy
10:58 AM90.1 °F59.5 °F36 %29.91 in10.0 miNNW (330°)23.0 mph29.9 mphClear
11:58 AM89.2 °F63.5 °F42 %29.92 in10.0 miNorth (350°)24.2 mph32.2 mphClear
12:58 PM90.5 °F63.3 °F40 %29.91 in10.0 miNorth (350°)21.9 mph28.8 mphClear
1:58 PM92.5 °F60.4 °F34 %29.90 in10.0 miNorth (350°)19.6 mph27.6 mphPartly Cloudy
2:58 PM91.8 °F59.0 °F33 %29.89 in10.0 miNorth (360°)16.1 mphThunderstormPartly Cloudy
3:58 PM89.1 °F63.0 °F42 %29.91 in10.0 miWSW (240°)15.0 mphThunderstormScattered Clouds
4:05 PM84.2 °F62.6 °F48 %29.99 in10.0 miSW (220°)12.7 mphThunderstormPartly Cloudy
4:58 PM88.2 °F62.6 °F42 %29.91 in10.0 miWSW (250°)12.7 mphClear
5:58 PM90.9 °F59.4 °F35 %29.90 in10.0 miWest (260°)9.2 mphClear
6:58 PM93.0 °F51.8 °F25 %29.88 in10.0 miNorth (350°)11.5 mph19.6 mphClear
7:58 PM89.1 °F51.4 °F27 %29.89 in10.0 miNNW (330°)10.4 mphClear
8:58 PM82.8 °F54.0 °F37 %29.92 in10.0 miNNW (340°)11.5 mphClear
9:28 PM82.4 °F53.6 °F37 %30.04 in10.0 miNorth (10°)12.7 mphClear
9:58 PM81.1 °F54.9 °F40 %29.96 in10.0 miNorth (350°)11.5 mphClear
10:58 PM77.7 °F55.0 °F45 %30.06 in10.0 miNorth (360°)8.1 mphClear
11:58 PM77.2 °F54.9 °F46 %29.99 in10.0 miNorth (350°)8.1 mphClear
Hourly data recorded from KRCA, located miles away from Black Hawk, South Dakota







STORIES FROM OUR PARTNERS